Back to catalog

DMSP 5D-2 F11

USA 73

AliveWeatherSSO
NORAD 21798·PAYLOAD·🇺🇸 United States

Launched Nov 28, 1991 from Vandenberg Space Force Base

Loading…

Next Passes (next 24 hours)

TLE

FreshSource: Space-Track

Epoch: Sep 14, 2026, 13:41 UTC

1 21798U 91082A   26257.57053343  .00000046  00000-0  43784-4 0  9999
2 21798  98.6869 283.8654 0012632  20.1567 340.0104 14.17467224797795

Track DMSP 5D-2 F11 in real time with AllMySat

Download on the App Store